Tracking 25709 objects as of 23-May-2022
HD Live streaming from Space Station
objects crossing your sky now

FREGAT DEB

Track FREGAT DEB now!
10-day predictions


NORAD ID: 45868
Int'l Code: 2011-037CS
Perigee: 576.8 km
Apogee: 3,526.1 km
Inclination: 51.2 °
Period: 128.2 minutes
Semi major axis: 8422 km
RCS: Unknown
Launch date: July 18, 2011
Source: Commonwealth of Independent States (former USSR) (CIS)
Launch site: TYURATAM MISSILE AND SPACE COMPLEX (TTMTR)

Note: This is SATELLITE DEBRIS
aabbcc
Your satellite tracking list
Your tracking list is empty




NASA's NSSDC Master Catalog

Two Line Element Set (TLE):
1 45868U 11037CS  22132.52247427  .00974206  00000-0  65133+0 0  9991
2 45868  51.1998 266.3460 1750819 166.8051 198.5434 11.23168732 76877
Source of the keplerian elements: AFSPC